Misc. Local Product


586 
AXUS43 KLBF 110510
MISLBF
WESTERN AND NORTH CENTRAL NEBRASKA HOURLY WEATHER ROUNDUP
NATIONAL WEATHER SERVICE NORTH PLATTE NE
1100 PM CST SUN DEC 10 2017
NOTE: "FAIR" INDICATES FEW OR NO CLOUDS BELOW 12,000 FEET WITH NO
SIGNIFICANT WEATHER AND/OR OBSTRUCTIONS TO VISIBILITY.
NOTE: STATIONS NOT REPORTING VARIABLES SUCH AS SKY/WEATHER OR 
PRESSURE ARE PROVIDED BY RAWS AND APRS NETWORKS AND ARE NOT UNDER 
NATIONAL WEATHER SERVICE QUALITY CONTROL. 
...OBSERVATIONS IN AND NEAR THE EASTERN PANHANDLE OF NEBRASKA...
  
CITY           SKY/WX    TMP DP  RH WIND       PRES   REMARKS
PINE RIDGE     CLOUDY    41  19  41 W8        30.18S                  
GORDON         FAIR      42  18  37 W14       30.16R                  
CHADRON        CLOUDY    39  14  36 NW3       30.22R                  
ALLIANCE       CLOUDY    37  13  37 W13       30.22R WCI  29          
SIDNEY         CLOUDY    36   7  29 NW13      30.26F WCI  27          
CRESCENT LAKE    N/A     40  11  30 W12         N/A  WCI  33          
$$
 
...OBSERVATIONS IN NORTHERN NEBRASKA AND FAR SOUTHERN SOUTH DAKOTA...
  
CITY           SKY/WX    TMP DP  RH WIND       PRES   REMARKS
WINNER         FAIR      47  18  31 W15       30.02F                  
VALENTINE      CLEAR     35  18  49 W7        30.08F WCI  29          
THEDFORD       CLOUDY    34  15  45 W12       30.13F WCI  26          
AINSWORTH      CLOUDY    41  18  39 W13       30.07F                  
O'NEILL        CLOUDY    45  20  36 W9        30.03F                  
ORD            CLOUDY    33  14  45 NW7       30.06F WCI  27          
BROKEN BOW     CLEAR     47  11  23 W14       30.09F                  
VALENTINE NWR    N/A     43  13  29 W12         N/A                   
HALSEY           N/A     44  10  24 W9G16       N/A                   
BUTTE            N/A     41  21  45 W5          N/A                   
CHAMBERS         N/A     44  16  32 W3          N/A                   
EWING            N/A     42  21  43 W6          N/A                   
$$
...OBSERVATIONS IN SOUTHWEST NEBRASKA AND FAR NORTHEAST COLORADO...
  
CITY           SKY/WX    TMP DP  RH WIND       PRES   REMARKS
WRAY           FAIR      32   3  29 W14       30.27S WCI  22          
HOLYOKE        FAIR      45   5  19 NW16G22   30.25S                  
IMPERIAL       CLOUDY    39   6  25 W13       30.22S WCI  31          
OGALLALA       CLOUDY    40  10  28 W12       30.21R WCI  33          
NORTH PLATTE   CLOUDY    25  14  63 NW8       30.17S WCI  16          
MCCOOK         CLOUDY    32  10  40 W12       30.20R WCI  23          
LEXINGTON      CLOUDY    29  13  49 NW6       30.14S WCI  23          
STAPLETON        N/A     35  11  38 CALM        N/A                   
GOTHENBURG       N/A     38  12  34 W6          N/A  WCI  33          
CALLAWAY         N/A     39  12  33 NW13        N/A  WCI  31          
$$
 
...OBSERVATIONS IN CENTRAL LINCOLN COUNTY AREA...
  
CITY           SKY/WX    TMP DP  RH WIND       PRES   REMARKS
N.P. AIRPORT   CLOUDY    25  14  63 NW8       30.17S WCI  16          
N.P. DOWNTOWN    N/A     35  15  44 CALM        N/A                   
N.P. SOUTHEAST   N/A     38  13  36 W3          N/A                   
N.P. HILLCREST   N/A     33  12  42 W6          N/A  WCI  27          
$$
 
...SOME OBSERVATIONS FROM AROUND THE REGION...
  
CITY           SKY/WX    TMP DP  RH WIND       PRES   REMARKS
DENVER         CLOUDY    39  -5  15 SW10      30.32R WCI  32          
GRAND JUNCTION CLOUDY    25   2  37 E6        30.53R WCI  18          
LARAMIE        CLOUDY    19   7  59 CALM      30.39S                  
CHEYENNE       CLOUDY    40   1  19 NW16G26   30.32S WCI  31          
CASPER         CLOUDY    33  16  49 W12       30.37R WCI  24          
BISMARCK       CLOUDY    44  24  45 NW13      29.94R                  
RAPID CITY     CLEAR     51   9  18 NW16G25   30.11F                  
PIERRE         CLOUDY    45  21  38 W15       29.98F                  
SIOUX FALLS    CLOUDY    36  29  75 SW5       29.96F WCI  32          
OMAHA          CLOUDY    31  22  69 SE6       30.04F WCI  25          
GRAND ISLAND   CLEAR     38  16  40 W10       30.09F WCI  31          
SCOTTSBLUFF    CLOUDY    32   9  38 NW8       30.26S WCI  25          
KANSAS CITY    CLEAR     38  23  55 SW9       30.12S WCI  31          
HILL CITY      CLEAR     38  11  32 W12       30.21R WCI  30          
WICHITA        CLEAR     44  18  35 W10       30.19S                  
DODGE CITY     CLOUDY    43   8  23 W12       30.25F                  
OKLAHOMA CITY  CLEAR     41  16  36 CALM      30.27R                  
DALLAS         CLEAR     45  24  43 SW7       30.26F                  
AMARILLO       CLOUDY    41  11  29 W7        30.35S                  
$$